Regional Weather Roundup
Issued by NWS

Home | Current Version | Previous Version | Graphics & Text | Print | Product List | Glossary Off
Versions: 1 2 3 4 5 6 7 8 9 10 11 12 13 14 15 16 17 18 19 20 21 22 23 24 25 26 27 28 29 30 31 32 33 34 35 36 37 38 39 40 41 42 43 44 45 46 47 48 49 50

000
ASUS43 KDMX 190706
RWRIA

WEATHER ROUNDUP FOR IOWA
NATIONAL WEATHER SERVICE DES MOINES IA
100 AM CST THU JAN 19 2017

NOTE: "FAIR" INDICATES FEW OR NO CLOUDS BELOW 12,000 FEET WITH NO
SIGNIFICANT WEATHER AND/OR OBSTRUCTIONS TO VISIBILITY.

* - THESE STATIONS ARE NOT NWS STATIONS...THUS NOT UNDER NWS
QUALITY CONTROL.  THEY ALSO DO NOT REPORT WEATHER SUCH
AS PRECIPITATION OR FOG.

IAZ001>003-012>014-020>022-031>034-043>046-190800-
   NORTHWEST IOWA

CITY           SKY/WX    TMP DP  RH WIND       PRES   REMARKS
CARROLL *      CLEAR     36  36 100 S8        29.87R WCI  29
CHEROKEE *     CLEAR     36  35  96 S7        29.83S WCI  30
DENISON *      CLEAR     37  34  87 S9G16     29.84F WCI  31
LE MARS *      CLEAR     37  34  87 S10       29.82F WCI  30
ORANGE CITY *  CLEAR     36  34  93 S9        29.79F WCI  29
SHELDON *      CLEAR     37  37 100 S13       29.78F WCI  29
SIOUX CITY     CLEAR     34  32  92 E8        29.82F WCI  27
SPENCER        CLEAR     36  33  89 S9        29.82S WCI  29
STORM LAKE *   CLEAR     36  34  93 S13       29.83F WCI  27
$$

IAZ055>058-069>071-079>083-090>094-190800-
   SOUTHWEST IOWA

CITY           SKY/WX    TMP DP  RH WIND       PRES   REMARKS
ATLANTIC *     CLEAR     36  34  93 S9        29.89F WCI  29
AUDUBON *      CLEAR     36  34  93 S7        29.89S WCI  30
CLARINDA *     CLEAR     36  36 100 S6        29.93F WCI  31
COUNCIL BLFS * CLEAR     34  34 100 S8        29.86F WCI  27
CRESTON *      FOG       34  34 100 S9        29.93F VSB 1/4 WCI  26
HARLAN  *      CLEAR     36  36 100 S9        29.90F WCI  29
LAMONI         FOG       33  32  96 S5        29.92F VSB 1/4 WCI  29
RED OAK *      CLEAR     36  36 100 S7        29.89F WCI  30
SHENANDOAH *   PTCLDY    36  34  93 S5        29.90F FOG     WCI  32
$$

IAZ047>049-059>061-072>074-084-190800-
   CENTRAL IOWA

CITY           SKY/WX    TMP DP  RH WIND       PRES   REMARKS
AMES           FOG       34  34 100 S8        29.92F VSB 1   WCI  27
ANKENY *       FOG       36  36 100 S7        29.94F VSB 1/2 WCI  30
BOONE *        FOG       34  34 100 S9        29.90F VSB 1/4 WCI  26
CHARITON *     CLEAR     34  32  93 S7        29.94F FOG     WCI  28
DES MOINES     FOG       37  36  96 S9        29.93F VSB 1/2 WCI  30
GRINNELL*      FOG       33  32  98 S9        29.95F VSB 1/4 WCI  25
KNOXVILLE *    FOG       34  34 100 S12       29.93S VSB<1/4 WCI  25
MARSHALLTOWN   FOG       32  32 100 S8        29.93F VSB 1/2 WCI  25
NEWTON *       FOG       34  34 100 S6        29.94F VSB<1/4 WCI  29
PELLA *        FOG       34  34  99 S8        29.96F VSB 1/4 WCI  27
PERRY *        FOG       35  35 100 S10       29.91F VSB 3/4 WCI  27
$$

IAZ004>006-015-016-023>025-035-036-190800-
   NORTH CENTRAL IOWA

CITY           SKY/WX    TMP DP  RH WIND       PRES   REMARKS
ALGONA *       CLEAR     34  34 100 S10       29.85F FOG     WCI  26
CLARION *      CLOUDY    34  34 100 S17       29.89S FOG     WCI  23
ESTHERVILLE    CLEAR     34  33  96 S15       29.81F WCI  24
FORT DODGE *   CLEAR     34  30  86 SE3       29.89S
MASON CITY     CLEAR     32  30  92 S9        29.89S WCI  24
FOREST CITY *    N/A     32  32 100 S9        29.87S WCI  24
WEBSTER CITY * FOG       34  34 100 S12       29.88F VSB 1/4 WCI  25
IOWA FALLS *   FOG       33  32  96 S10       29.93R VSB 3/4 WCI  25
$$

IAZ007>011-017>019-026>030-037>042-050>054-066-190800-
   NORTHEAST IOWA

CITY           SKY/WX    TMP DP  RH WIND       PRES   REMARKS
CEDAR RAPIDS   FOG       32  32 100 S12       29.96F VSB 1/4 WCI  23
CHARLES CITY * PTCLDY    32  32 100 S13       29.92R WCI  22
CLINTON *      CLEAR     30  29  96 SE6       30.01F FOG     WCI  24
DECORAH *      CLEAR     34  32  93 VRB6G14   29.92R WCI  29
DUBUQUE        FOG       33  33 100 S13       29.97S VSB 1/4 WCI  24
MONTICELLO *   CLOUDY    32  32 100 S7        29.98S FOG     WCI  26
OELWEIN *      CLOUDY    32  32 100 S8        29.94F FOG     WCI  25
WATERLOO       CLOUDY    32  31  96 S7        29.94S WCI  26
$$

IAZ064-065-067-068-078-190800-
   EAST CENTRAL IOWA

CITY           SKY/WX    TMP DP  RH WIND       PRES   REMARKS
DAVENPORT      CLEAR     32  31  96 S7        30.00F FOG     WCI  26
IOWA CITY      FOG       33  32  96 S5        30.01S VSB 1/4 WCI  29
MUSCATINE *    FOG       28  28 100 CALM      30.01F VSB 1/4
QUAD CITIES    CLOUDY    28  27  96 CALM      30.00S FOG
$$

IAZ062-063-075>077-085>089-095>099-190800-
   SOUTHEAST IOWA

CITY           SKY/WX    TMP DP  RH WIND       PRES   REMARKS
BURLINGTON     CLOUDY    31  31 100 S7        30.00S WCI  24
FAIRFIELD *    CLOUDY    32  30  93 SE5       29.97F FOG     WCI  27
FORT MADISON * CLOUDY    36  34  93 SE7       30.00F WCI  30
KEOKUK *       CLOUDY    34  34 100 SE3       30.00S
OSKALOOSA *    FOG       32  32  99 S6        29.97F VSB 1/4 WCI  26
OTTUMWA        FOG       33  32  96 CALM      29.95F VSB 1/4
WASHINGTON *   FOG       30  30 100 SE3       29.99F VSB 1/4
$$

ABBREVIATIONS USED IN REMARKS
   TC - TEMPERATURES IN CELSIUS
  WCI - WIND CHILL INDEX
   HX - HEAT INDEX
  VSB - VISIBILITY
$$





USA.gov is the U.S. government's official web portal to all federal, state and local government web resources and services.